Location: Ash Swamp
(41.5170°N, 74.6157°W)
Time: 17:17:33
(UTC+00:00)

ATLAS 5 CENTAUR R/B - Pass Details

Date: 14 July 2020
Orbit: 534 x 1124 km, 63.4° (Epoch: 30 July)

Event Time Altitude Azimuth Distance (km) Brightness Sun altitude
Rises 06:39:29 0° 332° (NNW) 3,249 5.8 -23.2°
Reaches altitude 10° 06:42:04 10° 343° (NNW) 2,417 5.2 -23.0°
Maximum altitude 06:46:59 29° 44° (NE) 1,593 4.3 -22.6°
Drops below altitude 10° 06:52:32 10° 103° (ESE) 2,759 5.0 -22.1°
Sets 06:55:40 0° 113° (ESE) 3,790 5.6 -21.8°
